This is the latest recevied weather packets stored in our database for station/object IZ1UQG-N2. If no packets are shown the sender has not sent any weather packets the latest 10 day(s).
| Time | Temp. | Humidity | Pressure | Rain* | Wind** | Luminosity | Snow |
|---|---|---|---|---|---|---|---|
| 1787624680 | 17.78° C | 93% | 1009 hPa | 2.54 mm | - | 0 W/m² | - |
| 1787624620 | 17.78° C | 93% | 1009 hPa | 2.79 mm | - | 0 W/m² | - |
| 1787624562 | 17.78° C | 93% | 1009 hPa | 2.54 mm | - | 0 W/m² | - |
| 1787624501 | 17.78° C | 93% | 1008.9 hPa | 2.54 mm | - | 0 W/m² | - |
| 1787624442 | 17.78° C | 93% | 1009.2 hPa | 2.54 mm | - | 0 W/m² | - |
| 1787624381 | 17.78° C | 93% | 1009.2 hPa | 2.29 mm | - | 0 W/m² | - |
| 1787624321 | 17.78° C | 93% | 1009.3 hPa | 2.29 mm | - | 0 W/m² | - |
| 1787624261 | 17.78° C | 93% | 1009.3 hPa | 2.29 mm | - | 0 W/m² | - |
| 1787624200 | 17.78° C | 93% | 1009.2 hPa | 2.54 mm | - | 0 W/m² | - |
| 1787624140 | 17.78° C | 93% | 1009.2 hPa | 2.54 mm | - | 0 W/m² | - |
| 1787624080 | 17.78° C | 93% | 1009.3 hPa | 2.79 mm | - | 0 W/m² | - |
| 1787624022 | 17.78° C | 93% | 1009.3 hPa | 2.54 mm | - | 0 W/m² | - |
| 1787623962 | 17.78° C | 93% | 1009.3 hPa | 2.54 mm | - | 0 W/m² | - |
| 1787623902 | 17.78° C | 93% | 1009.2 hPa | 2.54 mm | - | 0 W/m² | - |
| 1787623841 | 17.78° C | 93% | 1009.3 hPa | 2.54 mm | - | 0 W/m² | - |
| 1787623781 | 17.78° C | 93% | 1009.2 hPa | 2.29 mm | - | 0 W/m² | - |
| 1787623720 | 17.78° C | 93% | 1009.4 hPa | 2.54 mm | - | 0 W/m² | - |
| 1787623660 | 17.78° C | 93% | 1009.2 hPa | 2.79 mm | - | 0 W/m² | - |
| 1787623600 | 17.78° C | 93% | 1009.2 hPa | 2.79 mm | - | 0 W/m² | - |
| 1787623540 | 17.78° C | 93% | 1009.3 hPa | 2.79 mm | - | 0 W/m² | - |
| 1787623481 | 17.78° C | 93% | 1009.2 hPa | 3.05 mm | - | 0 W/m² | - |
| 1787623421 | 17.78° C | 93% | 1009.3 hPa | 2.79 mm | - | 0 W/m² | - |
| 1787623361 | 17.78° C | 93% | 1009.3 hPa | 3.3 mm | - | 0 W/m² | - |
| 1787623300 | 17.78° C | 93% | 1009.3 hPa | 3.56 mm | - | 0 W/m² | - |
| 1787623240 | 17.78° C | 93% | 1009.3 hPa | 3.56 mm | - | 0 W/m² | - |
* Rain latest hour (hover to see other rain measurements)
** Current wind speed in m/s (hover to see current wind gust speed)